Regional Weather Roundup
Issued by NWS

Home | Current Version | Previous Version | Text Only | Print | Product List | Glossary Off
Versions: 1 2 3 4 5 6 7 8 9 10 11 12 13 14 15 16 17 18 19 20 21 22 23 24 25 26 27 28 29 30 31 32 33 34 35 36 37 38 39 40 41 42 43 44 45 46 47 48 49 50

000
ASUS43 KLSX 180359
RWRMO

WEATHER SUMMARY FOR MISSOURI
NATIONAL WEATHER SERVICE SPRINGFIELD MO
1100 PM CDT WED SEP 17 2014

NOTE: "FAIR" INDICATES FEW OR NO CLOUDS BELOW 12,000 FEET WITH NO
       SIGNIFICANT WEATHER AND/OR OBSTRUCTIONS TO VISIBILITY.
       CURRENT SKY AND/OR WEATHER CONDITIONS ARE NOT AVAILABLE FOR
       CHILLICOTHE AND FARMINGTON.

MOZ001>031-035>038-043-044-053-054-180500-
...NORTHERN AND WESTERN MISSOURI...

CITY           SKY/WX    TMP DP  RH WIND       PRES   REMARKS
KANSAS CTY INT CLEAR     66  63  90 E5        29.96R
KANSAS C DTWN  CLEAR     65  63  93 E5        29.95R
LEE`S SUMMIT   CLEAR     64  63  96 E5        29.97R
ST JOSEPH      CLEAR     60  59  96 CALM      29.96R
KIRKSVILLE     CLEAR     59  57  93 E6        30.01R FOG

$$
MOZ066>068-077>081-088>096-101>105-180500-
...SOUTHWEST MISSOURI...

CITY           SKY/WX    TMP DP  RH WIND       PRES   REMARKS
SPRINGFIELD    MOCLDY    65  63  93 E5        29.93F
JOPLIN         MOCLDY    65  63  93 N8        29.93R

$$
MOZ032>034-039>042-045>050-055>058-069>072-180500-
...CENTRAL MISSOURI...

CITY           SKY/WX    TMP DP  RH WIND       PRES   REMARKS
COLUMBIA       CLOUDY    61  60  97 E8          N/A  FOG
JEFFERSON CITY CLOUDY    63  61  93 E8        29.98R FOG
ROLLA          CLOUDY    62  61  96 E3        29.97R FOG
SEDALIA        CLOUDY    64  61  90 E7        29.97R FOG
WHITEMAN AFB   MOCLDY    64  63  94 E9        29.96R
OSAGE BEACH    CLOUDY    66  61  82 E6        29.97R

$$
MOZ051-052-059>065-180500-
...EAST CENTRAL MISSOURI...

CITY           SKY/WX    TMP DP  RH WIND       PRES   REMARKS
ST LOUIS INTL  CLOUDY    63  55  75 E3        30.01R
SPIRIT OF STL  CLOUDY    61  57  87 NE7       29.99R
ST CHARLES     CLOUDY    60  57  89 NE3       30.00R

$$
MOZ072>076-082>087-097>100-106>115-180500-
...SOUTH CENTRAL AND SOUTHEAST MISSOURI...

CITY           SKY/WX    TMP DP  RH WIND       PRES   REMARKS
CAPE GIRARDEAU MOCLDY    57  56  96 CALM      29.99R FOG
FARMINGTON     CLOUDY    57  57 100 CALM      30.01R
POPLAR BLUFF   CLOUDY    62  58  86 CALM      29.98R
WEST PLAINS    FOG       62  60  93 E6        29.99S VSB 1/4

$$



USA.gov is the U.S. government's official web portal to all federal, state and local government web resources and services.